FW5291 Weather Reports


Display with metric or nautical units.
time (UTC)temp
F
wind
direction
speed
MPH
gust
MPH
rain 1hr
in
rain 24hr
in
rain mn
in
humidity
%
barometer
mb
20260509223051 55 179 1.0 0.0 0.00 0.00 0.00 91 1027.6
20260509221605 55 262 1.0 0.0 0.00 0.00 0.00 93 1027.4
20260509220059 54 298 1.0 0.0 0.00 0.00 0.00 94 1027.4
20260509214545 54 153 1.0 0.0 0.00 0.00 0.00 95 1027.4
20260509213042 52 131 1.0 0.0 0.00 0.00 0.00 95 1027.3
20260509211538 51 94 2.0 0.0 0.00 0.00 0.00 95 1026.9
20260509210036 50 94 1.0 0.0 0.00 0.00 0.00 94 1026.4
20260509204535 50 95 0.0 0.0 0.00 0.00 0.00 94 1026.4
20260509203041 50 95 0.0 0.0 0.00 0.00 0.00 94 1026.4
20260509201532 50 95 0.0 0.0 0.00 0.00 0.00 95 1026.3
20260509200033 50 96 0.0 0.0 0.00 0.00 0.00 94 1026.1
20260509194530 50 96 0.0 0.0 0.00 0.00 0.00 94 1026.0
20260509193028 49 96 0.0 0.0 0.00 0.00 0.00 94 1025.8
20260509191526 48 94 0.0 0.0 0.00 0.00 0.00 94 1025.7
20260509190040 48 93 0.0 0.0 0.00 0.00 0.00 94 1025.5
20260509184531 49 93 0.0 0.0 0.00 0.00 0.00 94 1025.3
20260509183028 48 93 1.0 0.0 0.00 0.00 0.00 94 1025.3
20260509181521 48 95 0.0 0.0 0.00 0.00 0.00 94 1025.0
20260509180019 48 96 0.0 0.0 0.00 0.00 0.00 93 1025.1
20260509174522 49 94 0.0 0.0 0.00 0.00 0.00 94 1025.1
20260509173016 49 94 0.0 0.0 0.00 0.00 0.00 94 1024.9
20260509171515 49 93 0.0 0.0 0.00 0.00 0.00 93 1025.0
20260509170026 49 93 0.0 0.0 0.00 0.00 0.00 93 1024.9
20260509164512 49 93 0.0 0.0 0.00 0.00 0.00 94 1024.9
20260509163012 49 94 0.0 0.0 0.00 0.00 0.00 93 1025.0
20260509161511 49 94 0.0 0.0 0.00 0.00 0.00 93 1025.1
20260509160014 50 96 0.0 0.0 0.00 0.00 0.00 93 1025.1
20260509154506 50 95 0.0 0.0 0.00 0.00 0.00 93 1025.0
20260509153006 50 95 0.0 0.0 0.00 0.00 0.00 93 1025.0
20260509151505 50 94 0.0 0.0 0.00 0.00 0.00 93 1025.1
20260509150004 50 94 0.0 0.0 0.00 0.00 0.00 93 1025.1
20260509144504 50 94 1.0 0.0 0.00 0.00 0.00 92 1025.2
20260509143100 51 94 0.0 0.0 0.00 0.00 0.00 92 1025.1
20260509141558 51 94 0.0 0.0 0.00 0.00 0.00 92 1025.2
20260509140055 51 95 0.0 0.0 0.00 0.00 0.00 92 1025.3
20260509134606 51 94 0.0 0.0 0.00 0.00 0.00 92 1025.3
20260509133055 52 95 0.0 0.0 0.00 0.00 0.00 92 1025.4
20260509131622 52 94 0.0 0.0 0.00 0.00 0.00 92 1025.4
20260509124552 52 94 0.0 0.0 0.00 0.00 0.00 91 1025.2
20260509123100 53 94 0.0 0.0 0.00 0.00 0.00 91 1025.1
20260509121551 53 94 1.0 0.0 0.00 0.00 0.00 90 1025.1
20260509120051 54 94 0.0 0.0 0.00 0.00 0.00 90 1025.0
20260509114605 54 94 0.0 0.0 0.00 0.00 0.00 90 1025.1
20260509113055 55 94 0.0 0.0 0.00 0.00 0.00 89 1025.1
20260509111549 55 94 0.0 0.0 0.00 0.00 0.00 88 1025.1
20260509104554 56 94 0.0 0.0 0.00 0.00 0.00 87 1024.9
20260509103046 57 94 0.0 0.0 0.00 0.00 0.00 86 1024.9
20260509101546 58 94 0.0 0.0 0.00 0.00 0.00 85 1024.9
20260509100045 59 94 0.0 0.0 0.00 0.00 0.00 84 1024.7
20260509094544 59 94 0.0 0.0 0.00 0.00 0.00 84 1024.7
20260509093043 59 94 0.0 0.0 0.00 0.00 0.00 83 1024.7
20260509091542 60 94 0.0 0.0 0.00 0.00 0.00 82 1024.5
20260509090048 61 94 0.0 0.0 0.00 0.00 0.00 81 1024.3
20260509084541 62 94 0.0 0.0 0.00 0.00 0.00 79 1024.0
20260509083046 63 94 0.0 0.0 0.00 0.00 0.00 77 1023.8
20260509081544 63 98 0.0 0.0 0.00 0.00 0.00 76 1023.6
20260509080040 64 99 0.0 0.0 0.00 0.00 0.00 75 1023.5
20260509074547 65 99 2.0 0.0 0.00 0.00 0.00 74 1023.3
20260509073039 66 59 0.0 0.0 0.00 0.00 0.00 71 1023.1
20260509071539 67 57 1.0 0.0 0.00 0.00 0.00 69 1022.9
20260509070039 69 57 0.0 0.0 0.00 0.00 0.00 66 1022.8
20260509064538 70 57 2.0 0.0 0.00 0.00 0.00 62 1022.7
20260509063038 72 60 1.0 0.0 0.00 0.00 0.00 57 1022.4
20260509061537 73 75 1.0 0.0 0.00 0.00 0.00 54 1022.3
20260509060038 74 118 0.0 0.0 0.00 0.00 0.00 53 1022.2
20260509054542 73 118 1.0 0.0 0.00 0.00 0.00 53 1022.1
20260509053120 74 256 2.0 0.0 0.00 0.00 0.00 53 1022.1
20260509051542 74 81 1.0 0.0 0.00 0.00 0.00 53 1022.0
20260509050043 74 113 2.0 0.0 0.00 0.00 0.00 51 1021.9
20260509044531 74 101 3.0 0.0 0.00 0.00 0.00 51 1021.9
20260509043030 75 78 2.0 0.0 0.00 0.00 0.00 51 1022.0
20260509041529 75 85 2.0 0.0 0.00 0.00 0.00 51 1022.1
20260509040027 74 355 2.0 0.0 0.00 0.00 0.00 51 1022.1
20260509034524 74 226 2.0 0.0 0.00 0.00 0.00 52 1022.0
20260509033023 74 57 2.0 0.0 0.00 0.00 0.00 52 1022.1
20260509031522 74 227 2.0 0.0 0.00 0.00 0.00 53 1022.2
20260509030030 73 184 2.0 0.0 0.00 0.00 0.00 53 1022.2
20260509024518 72 65 4.0 0.0 0.00 0.00 0.00 56 1022.5
20260509023026 73 93 1.0 0.0 0.00 0.00 0.00 54 1022.7
20260509021515 72 209 2.0 0.0 0.00 0.00 0.00 56 1023.0
20260509020013 71 185 2.0 0.0 0.00 0.00 0.00 55 1023.2
20260509014512 71 187 2.0 0.0 0.00 0.00 0.00 55 1023.4
20260509013010 71 134 2.0 0.0 0.00 0.00 0.00 56 1023.6
20260509011508 70 189 2.0 0.0 0.00 0.00 0.00 56 1023.9
20260509010012 69 180 2.0 0.0 0.00 0.00 0.00 56 1024.0
20260509004502 68 235 2.0 0.0 0.00 0.00 0.00 58 1024.2
20260509003134 67 267 2.0 0.0 0.00 0.00 0.00 60 1024.5
20260509001605 66 246 2.0 0.0 0.00 0.00 0.00 62 1024.5
20260509000108 65 321 2.0 0.0 0.00 0.00 0.00 68 1024.6
20260508234549 63 216 2.0 0.0 0.00 0.00 0.00 72 1024.6
20260508233047 60 174 2.0 0.0 0.00 0.00 0.00 75 1024.7
20260508231547 59 221 1.0 0.0 0.00 0.00 0.00 78 1024.6
20260508230037 57 337 1.0 0.0 0.00 0.00 0.00 81 1024.6
20260508224536 54 96 0.0 0.0 0.00 0.00 0.00 83 1024.6